TimeCEST,TemperatureF,Dew PointF,Humidity,Sea Level PressureIn,VisibilityMPH,Wind Direction,Wind SpeedMPH,Gust SpeedMPH,PrecipitationIn,Events,Conditions,WindDirDegrees,DateUTC
12:25 AM,51.8,46.4,82,30.21,6.2,NE,11.5,-,N/A,,Unknown,40,2013-05-05 22:25:00
12:55 AM,51.8,46.4,82,30.21,6.2,NE,10.4,-,N/A,,Unknown,40,2013-05-05 22:55:00
1:25 AM,51.8,46.4,82,30.18,6.2,ENE,9.2,-,N/A,,Unknown,60,2013-05-05 23:25:00
1:55 AM,51.8,46.4,82,30.18,6.2,ENE,8.1,-,N/A,,Partly Cloudy,60,2013-05-05 23:55:00
2:25 AM,50.0,46.4,87,30.18,6.2,ENE,5.8,-,N/A,,Partly Cloudy,60,2013-05-06 00:25:00
2:55 AM,50.0,46.4,87,30.18,5.6,ENE,5.8,-,N/A,,Mist,60,2013-05-06 00:55:00
3:25 AM,50.0,46.4,87,30.18,5.6,ENE,3.5,-,N/A,,Mist,60,2013-05-06 01:25:00
3:55 AM,48.2,46.4,93,30.15,5.0,East,3.5,-,N/A,,Mist,100,2013-05-06 01:55:00
4:25 AM,48.2,46.4,93,30.15,4.3,East,3.5,-,N/A,,Partly Cloudy,90,2013-05-06 02:25:00
4:55 AM,48.2,44.6,87,30.15,3.7,South,1.2,-,N/A,,Mist,180,2013-05-06 02:55:00
5:25 AM,48.2,44.6,87,30.15,3.1,ESE,1.2,-,N/A,,Mist,110,2013-05-06 03:25:00
5:55 AM,48.2,44.6,87,30.15,-9999.0,SSE,2.3,-,N/A,,Mist,150,2013-05-06 03:55:00
6:25 AM,44.6,42.8,93,30.15,-9999.0,SE,2.3,-,N/A,,Partly Cloudy,130,2013-05-06 04:25:00
6:55 AM,46.4,44.6,93,30.15,-9999.0,ESE,1.2,-,N/A,,Partly Cloudy,120,2013-05-06 04:55:00
7:25 AM,50.0,46.4,87,30.15,3.7,East,1.2,-,N/A,,Partly Cloudy,90,2013-05-06 05:25:00
7:55 AM,53.6,46.4,77,30.15,5.6,East,2.3,-,N/A,,Haze,90,2013-05-06 05:55:00
8:25 AM,57.2,46.4,67,30.15,6.2,East,4.6,-,N/A,,Partly Cloudy,80,2013-05-06 06:25:00
8:55 AM,60.8,46.4,59,30.15,6.2,East,5.8,-,N/A,,Unknown,100,2013-05-06 06:55:00
9:25 AM,62.6,46.4,55,30.15,6.2,East,5.8,-,N/A,,Unknown,100,2013-05-06 07:25:00
9:55 AM,64.4,46.4,52,30.15,6.2,ENE,5.8,-,N/A,,Partly Cloudy,60,2013-05-06 07:55:00
10:25 AM,68.0,48.2,49,30.12,6.2,ENE,5.8,-,N/A,,Partly Cloudy,60,2013-05-06 08:25:00
10:55 AM,68.0,42.8,40,30.12,6.2,ENE,10.4,-,N/A,,Unknown,60,2013-05-06 08:55:00
11:25 AM,69.8,44.6,40,30.12,6.2,NE,6.9,-,N/A,,Unknown,50,2013-05-06 09:25:00
11:44 AM,69.8,42.8,38,30.12,6.2,ENE,6.9,-,N/A,,Unknown,60,2013-05-06 09:44:00
11:55 AM,71.6,44.6,38,30.12,6.2,NNE,5.8,-,N/A,,Partly Cloudy,30,2013-05-06 09:55:00
12:25 PM,71.6,46.4,41,30.09,6.2,ENE,4.6,-,N/A,,Partly Cloudy,60,2013-05-06 10:25:00
12:55 PM,71.6,44.6,38,30.09,6.2,NNE,5.8,-,N/A,,Mostly Cloudy,30,2013-05-06 10:55:00
1:25 PM,73.4,41.0,31,30.09,6.2,SE,6.9,-,N/A,,Scattered Clouds,140,2013-05-06 11:25:00
1:55 PM,75.2,41.0,29,30.09,6.2,East,4.6,-,N/A,,Mostly Cloudy,100,2013-05-06 11:55:00
2:25 PM,75.2,41.0,29,30.09,6.2,SSE,8.1,-,N/A,,Mostly Cloudy,160,2013-05-06 12:25:00
2:55 PM,77.0,42.8,29,30.06,6.2,South,5.8,-,N/A,,Mostly Cloudy,170,2013-05-06 12:55:00
3:14 PM,75.2,41.0,29,30.06,6.2,ENE,6.9,-,N/A,,Mostly Cloudy,70,2013-05-06 13:14:00
3:25 PM,73.4,39.2,29,30.06,6.2,East,5.8,-,N/A,,Partly Cloudy,80,2013-05-06 13:25:00
3:55 PM,73.4,39.2,29,30.06,6.2,SE,4.6,-,N/A,,Partly Cloudy,140,2013-05-06 13:55:00
4:25 PM,73.4,39.2,29,30.06,6.2,SE,2.3,-,N/A,,Mostly Cloudy,140,2013-05-06 14:25:00
4:55 PM,75.2,39.2,27,30.04,6.2,WSW,3.5,-,N/A,,Mostly Cloudy,250,2013-05-06 14:55:00
5:25 PM,73.4,44.6,36,30.04,6.2,East,4.6,-,N/A,,Mostly Cloudy,80,2013-05-06 15:25:00
5:55 PM,71.6,44.6,38,30.04,6.2,ENE,4.6,-,N/A,,Mostly Cloudy,60,2013-05-06 15:55:00
6:25 PM,71.6,46.4,41,30.04,6.2,NNW,10.4,-,N/A,,Overcast,330,2013-05-06 16:25:00
6:55 PM,71.6,46.4,41,30.04,6.2,NNW,13.8,-,N/A,,Mostly Cloudy,340,2013-05-06 16:55:00
7:25 PM,69.8,46.4,43,30.04,6.2,NNW,13.8,-,N/A,,Partly Cloudy,340,2013-05-06 17:25:00
7:55 PM,68.0,46.4,46,30.04,6.2,NNW,8.1,-,N/A,,Unknown,330,2013-05-06 17:55:00
8:25 PM,66.2,48.2,52,30.04,6.2,NNW,9.2,-,N/A,,Unknown,330,2013-05-06 18:25:00
8:55 PM,64.4,50.0,59,30.04,6.2,NNW,9.2,-,N/A,,Scattered Clouds,330,2013-05-06 18:55:00
9:25 PM,62.6,50.0,63,30.04,6.2,NNW,6.9,-,N/A,,Scattered Clouds,330,2013-05-06 19:25:00
9:55 PM,60.8,50.0,68,30.04,6.2,NNW,6.9,-,N/A,,Partly Cloudy,340,2013-05-06 19:55:00
10:25 PM,55.4,50.0,82,30.04,6.2,NNW,4.6,-,N/A,,Unknown,330,2013-05-06 20:25:00
10:55 PM,53.6,48.2,82,30.04,6.2,North,2.3,-,N/A,,Unknown,350,2013-05-06 20:55:00
11:25 PM,55.4,50.0,82,30.04,6.2,NW,3.5,-,N/A,,Partly Cloudy,320,2013-05-06 21:25:00
11:55 PM,51.8,46.4,82,30.04,6.2,NW,2.3,-,N/A,,Unknown,320,2013-05-06 21:55:00